This is the latest recevied weather packets stored in our database for station/object N2MLB-WX. If no packets are shown the sender has not sent any weather packets the latest 10 day(s).
| Time | Temp. | Humidity | Pressure | Rain* | Wind** | Luminosity | Snow |
|---|---|---|---|---|---|---|---|
| 1777834939 | 12.22° C | 54% | 1007 hPa | 0 mm | - | 105 W/m² | - |
| 1777834640 | 12.78° C | 50% | 1008 hPa | 0 mm | - | 82 W/m² | - |
| 1777834340 | 12.78° C | 52% | 1008 hPa | 0 mm | - | 131 W/m² | - |
| 1777834040 | 12.22° C | 54% | 1008 hPa | 0 mm | - | 93 W/m² | - |
| 1777833740 | 12.78° C | 51% | 1008 hPa | 0 mm | - | 77 W/m² | - |
| 1777833441 | 12.78° C | 46% | 1008 hPa | 0 mm | - | 87 W/m² | - |
| 1777833142 | 12.22° C | 45% | 1008 hPa | 0 mm | - | 90 W/m² | - |
| 1777832840 | 13.33° C | 41% | 1008 hPa | 0 mm | - | 124 W/m² | - |
| 1777832540 | 13.33° C | 40% | 1008 hPa | 0 mm | - | 97 W/m² | - |
| 1777832241 | 14.44° C | 41% | 1008 hPa | 0 mm | - | 94 W/m² | - |
| 1777831941 | 13.89° C | 39% | 1008 hPa | 0 mm | - | 94 W/m² | - |
| 1777831640 | 14.44° C | 38% | 1008 hPa | 0 mm | - | 113 W/m² | - |
| 1777831341 | 15° C | 37% | 1008 hPa | 0 mm | - | 117 W/m² | - |
| 1777831039 | 13.89° C | 37% | 1009 hPa | 0 mm | - | 131 W/m² | - |
| 1777830740 | 13.89° C | 40% | 1009 hPa | 0 mm | - | 146 W/m² | - |
| 1777830441 | 13.89° C | 41% | 1009 hPa | 0 mm | - | 127 W/m² | - |
| 1777830139 | 13.33° C | 42% | 1009 hPa | 0 mm | - | 109 W/m² | - |
| 1777829840 | 13.33° C | 40% | 1009 hPa | 0 mm | - | 120 W/m² | - |
| 1777829542 | 12.78° C | 40% | 1009 hPa | 0 mm | - | 110 W/m² | - |
| 1777829241 | 12.78° C | 37% | 1009 hPa | 0 mm | - | 108 W/m² | - |
| 1777828942 | 13.33° C | 37% | 1009 hPa | 0 mm | - | 101 W/m² | - |
| 1777828640 | 12.78° C | 45% | 1009 hPa | 0 mm | - | 94 W/m² | - |
| 1777828339 | 12.78° C | 40% | 1009 hPa | 0 mm | - | 124 W/m² | - |
| 1777828040 | 13.89° C | 39% | 1009 hPa | 0 mm | - | 140 W/m² | - |
| 1777827742 | 12.78° C | 48% | 1009 hPa | 0 mm | - | 126 W/m² | - |
* Rain latest hour (hover to see other rain measurements)
** Current wind speed in m/s (hover to see current wind gust speed)